Powrót do katalogu

CZ-6A DEB

AktywnyPO
NORAD 61109·DEBRIS·🇨🇳 China

Wystrzelony Aug 6, 2024 z Taiyuan Satellite Launch Center

Loading…

Następne Przeloty (najbliższe 24 godziny)

TLE

ŚwieżeSource: Space-Track

Epoka: Sep 14, 2026, 07:23 UTC

1 61109U 24140PB  26257.30766632  .00000182  00000-0  77686-4 0  9992
2 61109  89.0736 271.6210 0041697 279.7105  79.9377 14.20575027105099

Śledź CZ-6A DEB w czasie rzeczywistym z AllMySat

Download on the App Store